TSC110 CYUL-LFPG

Flight info

Callsign TSC110
Flight time 6h 32m
Altitude 35000
Route ANTEG DCT OBRON DCT MOBUB DCT EBMOS DCT IMORI DCT KITOP DCT CEFOU N579A TUDEP/M078F360 NATT NETKI/N0445F370 DCT MORAG DCT NUCHU L18 MID/N0417F290 Y803 SFD UM605 BIBAX
Aircraft A21N/M-SDE2E3FGHIJ1RWXY/LB1

Departure

Time 2026-05-06 01:48
Airport Montreal / Pierre Elliott Trudeau International Airport (CYUL)

Arrival

Time 2026-05-06 08:20
Airport Charles de Gaulle International Airport (LFPG)
Time Latitude Longitude Altitude Speed Heading
2026-05-06 00:59 45.45970 -73.75830 110 ft 0 kts 144°
2026-05-06 01:33 45.45986 -73.75845 109 ft 4 kts 152°
2026-05-06 01:33 45.46011 -73.75860 108 ft 4 kts 167°
2026-05-06 01:34 45.46038 -73.75865 108 ft 4 kts 170°
2026-05-06 01:34 45.46053 -73.75871 108 ft 4 kts 99°
2026-05-06 01:34 45.46054 -73.75873 108 ft 1 kts 87°
2026-05-06 01:38 45.46054 -73.75862 109 ft 1 kts 87°
2026-05-06 01:38 45.46055 -73.75833 109 ft 4 kts 87°
2026-05-06 01:38 45.46057 -73.75775 109 ft 7 kts 84°
2026-05-06 01:39 45.46097 -73.75720 107 ft 10 kts
2026-05-06 01:39 45.46175 -73.75724 107 ft 12 kts 358°
2026-05-06 01:39 45.46261 -73.75729 109 ft 8 kts 360°
2026-05-06 01:39 45.46299 -73.75660 110 ft 12 kts 89°
2026-05-06 01:40 45.46300 -73.75524 110 ft 15 kts 89°
2026-05-06 01:40 45.46303 -73.75363 110 ft 18 kts 89°
2026-05-06 01:40 45.46310 -73.75178 110 ft 19 kts 86°
2026-05-06 01:40 45.46316 -73.74987 111 ft 20 kts 88°
2026-05-06 01:41 45.46321 -73.74791 111 ft 20 kts 88°
2026-05-06 01:41 45.46327 -73.74586 111 ft 20 kts 87°
2026-05-06 01:41 45.46334 -73.74382 111 ft 21 kts 87°
2026-05-06 01:41 45.46340 -73.74173 111 ft 21 kts 87°
2026-05-06 01:42 45.46347 -73.73967 112 ft 18 kts 88°
2026-05-06 01:42 45.46351 -73.73807 112 ft 11 kts 88°
2026-05-06 01:42 45.46397 -73.73720 113 ft 13 kts 42°
2026-05-06 01:42 45.46443 -73.73659 114 ft 14 kts 43°
2026-05-06 01:43 45.46519 -73.73559 115 ft 15 kts 43°
2026-05-06 01:43 45.46601 -73.73452 115 ft 16 kts 42°
2026-05-06 01:43 45.46688 -73.73338 117 ft 17 kts 43°
2026-05-06 01:43 45.46809 -73.73178 117 ft 19 kts 42°
2026-05-06 01:44 45.46907 -73.73052 121 ft 19 kts 42°
2026-05-06 01:44 45.46975 -73.72964 122 ft 20 kts 42°
2026-05-06 01:44 45.47079 -73.72829 123 ft 21 kts 43°
2026-05-06 01:44 45.47185 -73.72688 124 ft 21 kts 43°
2026-05-06 01:45 45.47295 -73.72543 122 ft 22 kts 43°
2026-05-06 01:45 45.47409 -73.72393 122 ft 23 kts 42°
2026-05-06 01:45 45.47527 -73.72239 126 ft 23 kts 43°
2026-05-06 01:45 45.47649 -73.72079 125 ft 24 kts 43°
2026-05-06 01:46 45.47774 -73.71915 124 ft 25 kts 43°
2026-05-06 01:46 45.47861 -73.71802 125 ft 11 kts 44°
2026-05-06 01:46 45.47855 -73.71705 124 ft 12 kts 127°
2026-05-06 01:46 45.47798 -73.71613 128 ft 13 kts 134°
2026-05-06 01:47 45.47718 -73.71586 130 ft 14 kts 219°
2026-05-06 01:47 45.47623 -73.71708 130 ft 36 kts 222°
2026-05-06 01:47 45.47263 -73.72181 123 ft 103 kts 222°
2026-05-06 01:47 45.46578 -73.73077 149 ft 157 kts 223°
2026-05-06 01:48 45.45774 -73.74111 777 ft 156 kts 226°
2026-05-06 01:48 45.45026 -73.75213 1494 ft 152 kts 227°
2026-05-06 01:48 45.44280 -73.76215 2205 ft 145 kts 225°
2026-05-06 01:48 45.43504 -73.77164 2641 ft 155 kts 225°
2026-05-06 01:49 45.42616 -73.78224 2986 ft 173 kts 224°
2026-05-06 01:49 45.41654 -73.79352 3438 ft 186 kts 225°
2026-05-06 01:49 45.40656 -73.80603 3854 ft 199 kts 230°
2026-05-06 01:49 45.39980 -73.82366 4065 ft 219 kts 260°
2026-05-06 01:50 45.40167 -73.84556 4639 ft 235 kts 289°
2026-05-06 01:50 45.41210 -73.86411 5355 ft 250 kts 312°
2026-05-06 01:50 45.42640 -73.87856 6192 ft 256 kts 320°
2026-05-06 01:50 45.44355 -73.88811 6828 ft 278 kts 340°
2026-05-06 01:51 45.46363 -73.88683 7466 ft 305 kts
2026-05-06 01:51 45.48293 -73.87220 8093 ft 325 kts 33°
2026-05-06 01:51 45.50019 -73.85073 8711 ft 333 kts 37°
2026-05-06 01:51 45.51741 -73.82828 9313 ft 338 kts 37°
2026-05-06 01:52 45.53512 -73.80570 9878 ft 344 kts 36°
2026-05-06 01:52 45.55334 -73.78305 10352 ft 353 kts 36°
2026-05-06 01:52 45.57236 -73.75982 10666 ft 368 kts 35°
2026-05-06 01:52 45.59228 -73.73565 10941 ft 383 kts 36°
2026-05-06 01:53 45.61303 -73.71051 11202 ft 399 kts 36°
2026-05-06 01:53 45.63460 -73.68431 11452 ft 414 kts 36°
2026-05-06 01:53 45.65682 -73.65741 11913 ft 422 kts 36°
2026-05-06 01:53 45.67928 -73.63014 12497 ft 426 kts 36°
2026-05-06 01:54 45.70191 -73.60262 13109 ft 429 kts 36°
2026-05-06 01:54 45.72473 -73.57488 13683 ft 433 kts 36°
2026-05-06 01:54 45.74776 -73.54682 14207 ft 436 kts 37°
2026-05-06 01:54 45.77094 -73.51853 14756 ft 440 kts 37°
2026-05-06 01:55 45.79436 -73.48992 15240 ft 444 kts 37°
2026-05-06 01:55 45.81797 -73.46103 15743 ft 449 kts 37°
2026-05-06 01:55 45.84181 -73.43183 16256 ft 452 kts 37°
2026-05-06 01:55 45.86570 -73.40220 16764 ft 457 kts 40°
2026-05-06 01:56 45.88801 -73.36937 17276 ft 462 kts 45°
2026-05-06 01:56 45.90999 -73.33553 17786 ft 465 kts 45°
2026-05-06 01:56 45.93215 -73.30141 18257 ft 469 kts 45°
2026-05-06 01:56 45.95448 -73.26705 18694 ft 473 kts 45°
2026-05-06 01:57 45.97707 -73.23235 19071 ft 477 kts 45°
2026-05-06 01:57 45.99985 -73.19736 19479 ft 481 kts 45°
2026-05-06 01:57 46.02279 -73.16207 19890 ft 485 kts 45°
2026-05-06 01:57 46.04587 -73.12655 20300 ft 488 kts 45°
2026-05-06 01:58 46.06909 -73.09071 20746 ft 489 kts 45°
2026-05-06 01:58 46.09226 -73.05489 21232 ft 490 kts 45°
2026-05-06 01:58 46.11555 -73.01886 21674 ft 493 kts 45°
2026-05-06 01:58 46.13903 -72.98244 21938 ft 499 kts 45°
2026-05-06 01:59 46.16269 -72.94554 22268 ft 503 kts 46°
2026-05-06 01:59 46.18411 -72.90549 22607 ft 507 kts 58°
2026-05-06 01:59 46.20247 -72.86189 22947 ft 509 kts 60°
2026-05-06 01:59 46.22033 -72.81838 23279 ft 512 kts 60°
2026-05-06 02:00 46.23855 -72.77404 23546 ft 515 kts 60°
2026-05-06 02:00 46.25693 -72.72955 23796 ft 517 kts 59°
2026-05-06 02:00 46.27540 -72.68486 24054 ft 519 kts 59°
2026-05-06 02:00 46.29400 -72.63992 24234 ft 522 kts 59°
2026-05-06 02:01 46.31269 -72.59477 24436 ft 524 kts 59°
2026-05-06 02:01 46.33140 -72.54938 24702 ft 527 kts 59°
2026-05-06 02:01 46.35015 -72.50373 25014 ft 528 kts 59°
2026-05-06 02:01 46.36892 -72.45815 25445 ft 527 kts 59°
2026-05-06 02:02 46.38768 -72.41245 25782 ft 529 kts 59°
2026-05-06 02:02 46.40652 -72.36647 26073 ft 531 kts 59°
2026-05-06 02:02 46.42539 -72.32030 26383 ft 534 kts 59°
2026-05-06 02:02 46.44436 -72.27386 26642 ft 537 kts 59°
2026-05-06 02:03 46.46343 -72.22710 26916 ft 540 kts 59°
2026-05-06 02:03 46.48250 -72.18012 27197 ft 542 kts 59°
2026-05-06 02:03 46.50169 -72.13286 27470 ft 544 kts 59°
2026-05-06 02:03 46.52087 -72.08531 27745 ft 547 kts 59°
2026-05-06 02:04 46.54011 -72.03756 28011 ft 549 kts 59°
2026-05-06 02:04 46.55945 -71.98959 28269 ft 552 kts 59°
2026-05-06 02:04 46.57887 -71.94139 28552 ft 553 kts 59°
2026-05-06 02:04 46.59824 -71.89318 28957 ft 551 kts 59°
2026-05-06 02:05 46.61755 -71.84504 29311 ft 551 kts 58°
2026-05-06 02:05 46.63694 -71.79701 29618 ft 551 kts 58°
2026-05-06 02:05 46.65631 -71.74895 29902 ft 551 kts 58°
2026-05-06 02:05 46.67558 -71.70079 30169 ft 550 kts 58°
2026-05-06 02:06 46.69483 -71.65267 30448 ft 549 kts 57°
2026-05-06 02:06 46.71646 -71.60712 30680 ft 545 kts 46°
2026-05-06 02:06 46.76681 -71.52496 30741 ft 543 kts 44°
2026-05-06 02:07 46.81122 -71.43531 31009 ft 549 kts 58°
2026-05-06 02:07 46.83017 -71.38703 31282 ft 548 kts 58°
2026-05-06 02:07 46.84910 -71.33881 31523 ft 547 kts 58°
2026-05-06 02:08 46.86807 -71.29078 31808 ft 544 kts 58°
2026-05-06 02:08 46.88694 -71.24307 32158 ft 541 kts 58°
2026-05-06 02:08 46.90574 -71.19547 32406 ft 540 kts 58°
2026-05-06 02:08 46.92448 -71.14792 32626 ft 539 kts 58°
2026-05-06 02:09 46.94315 -71.10038 32835 ft 539 kts 57°
2026-05-06 02:09 46.96157 -71.05347 33031 ft 539 kts 57°
2026-05-06 02:09 46.98023 -71.00592 33208 ft 538 kts 57°
2026-05-06 02:09 46.99883 -70.95845 33404 ft 538 kts 57°
2026-05-06 02:10 47.01744 -70.91088 33562 ft 538 kts 57°
2026-05-06 02:10 47.03595 -70.86335 33762 ft 537 kts 57°
2026-05-06 02:10 47.07306 -70.76785 33888 ft 540 kts 57°
2026-05-06 02:11 47.11012 -70.67217 34184 ft 536 kts 58°
2026-05-06 02:11 47.12845 -70.62471 34414 ft 533 kts 58°
2026-05-06 02:11 47.14668 -70.57740 34610 ft 531 kts 58°
2026-05-06 02:12 47.18297 -70.48314 34681 ft 529 kts 58°
2026-05-06 02:12 47.21917 -70.38889 34648 ft 529 kts 58°
2026-05-06 02:13 47.25526 -70.29443 34646 ft 530 kts 58°
2026-05-06 02:13 47.29127 -70.19982 34646 ft 530 kts 58°
2026-05-06 02:14 47.32719 -70.10511 34645 ft 528 kts 58°
2026-05-06 02:14 47.36280 -70.01092 34641 ft 526 kts 59°
2026-05-06 02:15 47.39838 -69.91660 34644 ft 526 kts 59°
2026-05-06 02:15 47.43386 -69.82216 34639 ft 526 kts 59°
2026-05-06 02:16 47.46923 -69.72755 34644 ft 526 kts 59°
2026-05-06 02:16 47.50464 -69.63263 34657 ft 529 kts 59°
2026-05-06 02:17 47.53984 -69.53786 34647 ft 529 kts 59°
2026-05-06 02:17 47.57508 -69.44268 34639 ft 523 kts 60°
2026-05-06 02:18 47.60992 -69.34811 34642 ft 523 kts 60°
2026-05-06 02:18 47.64473 -69.25334 34649 ft 525 kts 60°
2026-05-06 02:19 47.67959 -69.15811 34653 ft 525 kts 60°
2026-05-06 02:19 47.71437 -69.06276 34655 ft 525 kts 60°
2026-05-06 02:20 47.76269 -68.91660 34667 ft 526 kts 65°
2026-05-06 02:21 47.79275 -68.81754 34670 ft 526 kts 65°
2026-05-06 02:21 47.82272 -68.71815 34672 ft 527 kts 65°
2026-05-06 02:22 47.85264 -68.61870 34665 ft 526 kts 65°
2026-05-06 02:22 47.88251 -68.51915 34669 ft 527 kts 65°
2026-05-06 02:23 47.91232 -68.41940 34702 ft 527 kts 66°
2026-05-06 02:23 47.94211 -68.31908 34679 ft 530 kts 66°
2026-05-06 02:24 47.97177 -68.21892 34664 ft 524 kts 66°
2026-05-06 02:24 48.00115 -68.11929 34669 ft 524 kts 66°
2026-05-06 02:25 48.03028 -68.02017 34662 ft 525 kts 66°
2026-05-06 02:25 48.05951 -67.92010 34683 ft 528 kts 66°
2026-05-06 02:26 48.08889 -67.81929 34667 ft 529 kts 66°
2026-05-06 02:26 48.11818 -67.71830 34657 ft 529 kts 66°
2026-05-06 02:27 48.14741 -67.61722 34650 ft 529 kts 66°
2026-05-06 02:27 48.17652 -67.51595 34653 ft 530 kts 66°
2026-05-06 02:28 48.20554 -67.41430 34654 ft 531 kts 66°
2026-05-06 02:28 48.23468 -67.31248 34647 ft 531 kts 66°
2026-05-06 02:29 48.26375 -67.21039 34653 ft 533 kts 66°
2026-05-06 02:29 48.29263 -67.10835 34628 ft 531 kts 66°
2026-05-06 02:30 48.32131 -67.00662 34639 ft 527 kts 67°
2026-05-06 02:30 48.34977 -66.90505 34649 ft 527 kts 67°
2026-05-06 02:31 48.37335 -66.82052 34648 ft 527 kts 67°
2026-05-06 02:31 48.40150 -66.71869 34640 ft 528 kts 68°
2026-05-06 02:32 48.42973 -66.61684 34649 ft 527 kts 68°
2026-05-06 02:32 48.45784 -66.51485 34657 ft 529 kts 68°
2026-05-06 02:33 48.48590 -66.41258 34635 ft 522 kts 68°
2026-05-06 02:33 48.49508 -66.37915 34633 ft 522 kts 68°
2026-05-06 02:34 48.54122 -66.21017 34654 ft 522 kts 69°
2026-05-06 02:34 48.56871 -66.10873 34646 ft 523 kts 69°
2026-05-06 02:35 48.59615 -66.00720 34647 ft 522 kts 69°
2026-05-06 02:35 48.62327 -65.90632 34634 ft 522 kts 69°
2026-05-06 02:36 48.65043 -65.80491 34621 ft 516 kts 69°
2026-05-06 02:36 48.67726 -65.70431 34633 ft 515 kts 69°
2026-05-06 02:37 48.70397 -65.60373 34629 ft 515 kts 69°
2026-05-06 02:37 48.73064 -65.50290 34626 ft 516 kts 69°
2026-05-06 02:38 48.75723 -65.40194 34619 ft 516 kts 69°
2026-05-06 02:38 48.78371 -65.30081 34623 ft 517 kts 69°
2026-05-06 02:39 48.81011 -65.19963 34591 ft 513 kts 69°
2026-05-06 02:39 48.83607 -65.09962 34634 ft 509 kts 70°
2026-05-06 02:40 48.86199 -64.99945 34620 ft 509 kts 70°
2026-05-06 02:40 48.88781 -64.89919 34608 ft 511 kts 70°
2026-05-06 02:41 48.91352 -64.79871 34625 ft 509 kts 70°
2026-05-06 02:41 48.93917 -64.69821 34613 ft 511 kts 70°
2026-05-06 02:42 48.96475 -64.59740 34605 ft 511 kts 70°
2026-05-06 02:42 48.99032 -64.49620 34612 ft 512 kts 70°
2026-05-06 02:43 49.01580 -64.39487 34608 ft 513 kts 70°
2026-05-06 02:43 49.04121 -64.29348 34619 ft 512 kts 70°
2026-05-06 02:44 49.06649 -64.19207 34630 ft 512 kts 70°
2026-05-06 02:44 49.09173 -64.09035 34649 ft 514 kts 70°
2026-05-06 02:45 49.11706 -63.98768 34644 ft 518 kts 70°
2026-05-06 02:45 49.14224 -63.88554 34625 ft 516 kts 71°
2026-05-06 02:46 49.16735 -63.78295 34644 ft 515 kts 71°
2026-05-06 02:46 49.19233 -63.68026 34650 ft 515 kts 71°
2026-05-06 02:47 49.21731 -63.57740 34659 ft 519 kts 71°
2026-05-06 02:47 49.24236 -63.47388 34661 ft 519 kts 71°
2026-05-06 02:48 49.26723 -63.37020 34669 ft 519 kts 71°
2026-05-06 02:48 49.29206 -63.26655 34663 ft 517 kts 71°
2026-05-06 02:49 49.31663 -63.16340 34680 ft 515 kts 71°
2026-05-06 02:49 49.34110 -63.06020 34689 ft 516 kts 70°
2026-05-06 02:50 49.36553 -62.95669 34689 ft 516 kts 71°
2026-05-06 02:50 49.38987 -62.85307 34691 ft 516 kts 71°
2026-05-06 02:51 49.41404 -62.74938 34703 ft 516 kts 71°
2026-05-06 02:51 49.43813 -62.64553 34704 ft 516 kts 71°
2026-05-06 02:52 49.46218 -62.54203 34692 ft 513 kts 70°
2026-05-06 02:52 49.48611 -62.43869 34704 ft 513 kts 70°
2026-05-06 02:53 49.50969 -62.33590 34694 ft 513 kts 70°
2026-05-06 02:53 49.53330 -62.23229 34709 ft 513 kts 71°
2026-05-06 02:54 49.55684 -62.12865 34700 ft 513 kts 71°
2026-05-06 02:54 49.58034 -62.02456 34709 ft 515 kts 71°
2026-05-06 02:55 49.60376 -61.92029 34689 ft 513 kts 71°
2026-05-06 02:55 49.62678 -61.81648 34703 ft 511 kts 71°
2026-05-06 02:56 49.64986 -61.71266 34689 ft 511 kts 71°
2026-05-06 02:56 49.67302 -61.60883 34692 ft 511 kts 71°
2026-05-06 02:57 49.69598 -61.50472 34698 ft 512 kts 71°
2026-05-06 02:57 49.71880 -61.40044 34700 ft 513 kts 71°
2026-05-06 02:58 49.74138 -61.29595 34690 ft 513 kts 71°
2026-05-06 02:58 49.76406 -61.19139 34690 ft 513 kts 71°
2026-05-06 02:59 49.78678 -61.08679 34704 ft 513 kts 71°
2026-05-06 02:59 49.80929 -60.98210 34701 ft 513 kts 72°
2026-05-06 03:00 49.83166 -60.87728 34718 ft 513 kts 72°
2026-05-06 03:00 49.85392 -60.77228 34719 ft 513 kts 72°
2026-05-06 03:01 49.87614 -60.66719 34719 ft 513 kts 72°
2026-05-06 03:01 49.89831 -60.56213 34727 ft 512 kts 72°
2026-05-06 03:02 49.92027 -60.45723 34727 ft 511 kts 72°
2026-05-06 03:02 49.94197 -60.35211 34728 ft 511 kts 72°
2026-05-06 03:03 49.96368 -60.24699 34737 ft 511 kts 72°
2026-05-06 03:03 49.98541 -60.14178 34739 ft 511 kts 72°
2026-05-06 03:04 50.00696 -60.03648 34746 ft 511 kts 72°
2026-05-06 03:04 50.02833 -59.93124 34741 ft 509 kts 72°
2026-05-06 03:05 50.04963 -59.82697 34741 ft 509 kts 72°
2026-05-06 03:05 50.07114 -59.72119 34751 ft 509 kts 72°
2026-05-06 03:06 50.09218 -59.61595 34754 ft 509 kts 72°
2026-05-06 03:06 50.11304 -59.51137 34759 ft 509 kts 72°
2026-05-06 03:07 50.13392 -59.40605 34761 ft 508 kts 72°
2026-05-06 03:07 50.15469 -59.30067 34760 ft 508 kts 72°
2026-05-06 03:08 50.17536 -59.19526 34759 ft 508 kts 72°
2026-05-06 03:08 50.19591 -59.08976 34765 ft 508 kts 72°
2026-05-06 03:09 50.21635 -58.98419 34766 ft 508 kts 72°
2026-05-06 03:09 50.23680 -58.87856 34781 ft 507 kts 72°
2026-05-06 03:10 50.25707 -58.77296 34782 ft 507 kts 72°
2026-05-06 03:10 50.27722 -58.66727 34788 ft 507 kts 72°
2026-05-06 03:11 50.29730 -58.56145 34784 ft 507 kts 72°
2026-05-06 03:11 50.31729 -58.45574 34774 ft 506 kts 72°
2026-05-06 03:12 50.33705 -58.35014 34796 ft 505 kts 72°
2026-05-06 03:12 50.35682 -58.24462 34793 ft 505 kts 72°
2026-05-06 03:13 50.37650 -58.13899 34792 ft 505 kts 72°
2026-05-06 03:13 50.39595 -58.03317 34799 ft 505 kts 72°
2026-05-06 03:14 50.41533 -57.92729 34795 ft 505 kts 72°
2026-05-06 03:14 50.43464 -57.82131 34784 ft 507 kts 72°
2026-05-06 03:15 50.45395 -57.71512 34794 ft 505 kts 72°
2026-05-06 03:15 50.47309 -57.60896 34795 ft 506 kts 72°
2026-05-06 03:16 50.49205 -57.50342 34799 ft 506 kts 73°
2026-05-06 03:16 50.51100 -57.39713 34800 ft 505 kts 73°
2026-05-06 03:17 50.52979 -57.29064 34809 ft 506 kts 72°
2026-05-06 03:17 50.54866 -57.18402 34815 ft 506 kts 73°
2026-05-06 03:18 50.56737 -57.07723 34802 ft 506 kts 72°
2026-05-06 03:18 50.58594 -56.97075 34813 ft 504 kts 73°
2026-05-06 03:19 50.60432 -56.86431 34832 ft 504 kts 73°
2026-05-06 03:19 50.61951 -56.77577 34847 ft 504 kts 73°
2026-05-06 03:20 50.64684 -56.61580 34854 ft 504 kts 73°
2026-05-06 03:20 50.66494 -56.50908 34856 ft 504 kts 73°
2026-05-06 03:21 50.68295 -56.40225 34857 ft 504 kts 73°
2026-05-06 03:21 50.70076 -56.29509 34867 ft 506 kts 73°
2026-05-06 03:22 50.71857 -56.18771 34885 ft 507 kts 72°
2026-05-06 03:22 50.73637 -56.07993 34878 ft 507 kts 72°
2026-05-06 03:23 50.75418 -55.97225 34872 ft 507 kts 72°
2026-05-06 03:23 50.77180 -55.86445 34870 ft 507 kts 73°
2026-05-06 03:24 50.78924 -55.75648 34871 ft 507 kts 73°
2026-05-06 03:24 50.80639 -55.64835 34867 ft 507 kts 73°
2026-05-06 03:25 50.82353 -55.54005 34872 ft 508 kts 73°
2026-05-06 03:25 50.84066 -55.43175 34876 ft 508 kts 72°
2026-05-06 03:26 50.85774 -55.32410 34880 ft 508 kts 73°
2026-05-06 03:26 50.87483 -55.21570 34884 ft 508 kts 73°
2026-05-06 03:27 50.89182 -55.10718 34901 ft 508 kts 73°
2026-05-06 03:27 50.90867 -54.99860 34893 ft 508 kts 73°
2026-05-06 03:28 50.92539 -54.88979 34891 ft 508 kts 73°
2026-05-06 03:28 50.94195 -54.78127 34894 ft 506 kts 73°
2026-05-06 03:29 50.95840 -54.67265 34900 ft 506 kts 73°
2026-05-06 03:29 50.97479 -54.56401 34900 ft 506 kts 73°
2026-05-06 03:30 50.99103 -54.45529 34905 ft 505 kts 73°
2026-05-06 03:30 51.00709 -54.34671 34902 ft 505 kts 73°
2026-05-06 03:31 51.02305 -54.23806 34903 ft 505 kts 73°
2026-05-06 03:31 51.03903 -54.12938 34914 ft 505 kts 73°
2026-05-06 03:32 51.05482 -54.02054 34920 ft 505 kts 73°
2026-05-06 03:32 51.07055 -53.91178 34936 ft 504 kts 73°
2026-05-06 03:33 51.08627 -53.80332 34922 ft 503 kts 73°
2026-05-06 03:33 51.10176 -53.69480 34935 ft 503 kts 73°
2026-05-06 03:34 51.11710 -53.58602 35140 ft 504 kts 74°
2026-05-06 03:34 51.12471 -53.53167 35304 ft 503 kts 74°
2026-05-06 03:34 51.13233 -53.47743 35453 ft 502 kts 74°
2026-05-06 03:35 51.13983 -53.42395 35594 ft 501 kts 74°
2026-05-06 03:35 51.14743 -53.36994 35789 ft 499 kts 74°
2026-05-06 03:35 51.15490 -53.31611 35960 ft 497 kts 74°
2026-05-06 03:35 51.16234 -53.26239 35987 ft 495 kts 73°
2026-05-06 03:36 51.18569 -53.16050 35963 ft 488 kts 62°
2026-05-06 03:36 51.21329 -53.06170 35960 ft 488 kts 61°
2026-05-06 03:37 51.24059 -52.96263 35958 ft 488 kts 62°
2026-05-06 03:37 51.26773 -52.86338 35971 ft 487 kts 62°
2026-05-06 03:38 51.29463 -52.76421 35958 ft 486 kts 62°
2026-05-06 03:38 51.32153 -52.66501 35963 ft 487 kts 62°
2026-05-06 03:39 51.34822 -52.56561 35963 ft 487 kts 62°
2026-05-06 03:39 51.37487 -52.46603 35961 ft 487 kts 62°
2026-05-06 03:40 51.40136 -52.36650 35979 ft 485 kts 62°
2026-05-06 03:40 51.42787 -52.26711 35971 ft 485 kts 62°
2026-05-06 03:41 51.45431 -52.16771 35974 ft 485 kts 62°
2026-05-06 03:41 51.48050 -52.06799 35974 ft 485 kts 62°
2026-05-06 03:42 51.50681 -51.96836 35999 ft 485 kts 63°
2026-05-06 03:42 51.53278 -51.86826 35980 ft 486 kts 63°
2026-05-06 03:43 51.55855 -51.76802 35981 ft 486 kts 63°
2026-05-06 03:43 51.58444 -51.66776 35979 ft 485 kts 63°
2026-05-06 03:44 51.61035 -51.56754 35982 ft 486 kts 63°
2026-05-06 03:44 51.63587 -51.46767 35999 ft 486 kts 63°
2026-05-06 03:45 51.66149 -51.36707 35985 ft 485 kts 63°
2026-05-06 03:45 51.68718 -51.26653 35987 ft 485 kts 63°
2026-05-06 03:46 51.71276 -51.16584 35989 ft 485 kts 63°
2026-05-06 03:46 51.73804 -51.06488 35988 ft 485 kts 63°
2026-05-06 03:47 51.76331 -50.96354 35998 ft 488 kts 64°
2026-05-06 03:47 51.78893 -50.86216 35990 ft 487 kts 63°
2026-05-06 03:48 51.81451 -50.76077 35992 ft 488 kts 64°
2026-05-06 03:48 51.83965 -50.65892 35991 ft 488 kts 64°
2026-05-06 03:49 51.86480 -50.55710 36000 ft 488 kts 64°
2026-05-06 03:49 51.88975 -50.45504 36000 ft 488 kts 64°
2026-05-06 03:50 51.91468 -50.35289 35996 ft 488 kts 64°
2026-05-06 03:50 51.93955 -50.25030 35999 ft 489 kts 64°
2026-05-06 03:51 51.96441 -50.14759 35999 ft 490 kts 64°
2026-05-06 03:51 51.98923 -50.04453 36006 ft 492 kts 64°
2026-05-06 03:52 52.00907 -49.93778 36004 ft 497 kts 73°
2026-05-06 03:52 52.02474 -49.82841 36003 ft 497 kts 73°
2026-05-06 03:53 52.04025 -49.71899 36004 ft 497 kts 73°
2026-05-06 03:53 52.05586 -49.60956 36004 ft 497 kts 73°
2026-05-06 03:54 52.07125 -49.49999 36022 ft 497 kts 73°
2026-05-06 03:54 52.08666 -49.39044 36011 ft 497 kts 73°
2026-05-06 03:55 52.10191 -49.28100 36013 ft 496 kts 73°
2026-05-06 03:55 52.11691 -49.17224 36011 ft 496 kts 73°
2026-05-06 03:56 52.13188 -49.06273 36018 ft 496 kts 73°
2026-05-06 03:56 52.14679 -48.95312 36039 ft 496 kts 73°
2026-05-06 03:57 52.16150 -48.84371 36020 ft 494 kts 73°
2026-05-06 03:57 52.17614 -48.73436 36019 ft 494 kts 73°
2026-05-06 03:58 52.19074 -48.62498 36020 ft 494 kts 73°
2026-05-06 03:58 52.20513 -48.51548 36017 ft 494 kts 74°
2026-05-06 03:59 52.21948 -48.40602 36037 ft 493 kts 74°
2026-05-06 03:59 52.23367 -48.29679 36030 ft 492 kts 74°
2026-05-06 04:00 52.24779 -48.18756 36025 ft 492 kts 74°
2026-05-06 04:00 52.26178 -48.07837 36028 ft 492 kts 74°
2026-05-06 04:01 52.27566 -47.96905 36029 ft 492 kts 75°
2026-05-06 04:01 52.28943 -47.85969 36050 ft 492 kts 75°
2026-05-06 04:02 52.30312 -47.75041 36033 ft 490 kts 75°
2026-05-06 04:02 52.31668 -47.64130 36019 ft 490 kts 75°
2026-05-06 04:03 52.33010 -47.53211 36026 ft 490 kts 75°
2026-05-06 04:03 52.34333 -47.42285 36027 ft 490 kts 76°
2026-05-06 04:04 52.35644 -47.31349 36028 ft 490 kts 76°
2026-05-06 04:04 52.36945 -47.20400 36038 ft 490 kts 76°
2026-05-06 04:05 52.38262 -47.09480 36026 ft 489 kts 76°
2026-05-06 04:05 52.39565 -46.98560 36028 ft 489 kts 76°
2026-05-06 04:06 52.40631 -46.89474 36024 ft 489 kts 76°
2026-05-06 04:06 52.41902 -46.78531 36025 ft 489 kts 77°
2026-05-06 04:07 52.43163 -46.67585 36038 ft 489 kts 77°
2026-05-06 04:07 52.44411 -46.56643 36034 ft 488 kts 77°
2026-05-06 04:08 52.45649 -46.45702 36031 ft 488 kts 77°
2026-05-06 04:08 52.46876 -46.34758 36031 ft 488 kts 77°
2026-05-06 04:09 52.48085 -46.23880 36037 ft 488 kts 77°
2026-05-06 04:09 52.49293 -46.12923 36053 ft 488 kts 77°
2026-05-06 04:10 52.50486 -46.01970 36042 ft 487 kts 78°
2026-05-06 04:10 52.51673 -45.91024 36033 ft 487 kts 78°
2026-05-06 04:11 52.52848 -45.80075 36033 ft 487 kts 78°
2026-05-06 04:11 52.54014 -45.69116 36033 ft 487 kts 78°
2026-05-06 04:12 52.55165 -45.58149 36033 ft 487 kts 78°
2026-05-06 04:12 52.56300 -45.47179 36044 ft 486 kts 79°
2026-05-06 04:13 52.57438 -45.36236 36036 ft 485 kts 79°
2026-05-06 04:13 52.58556 -45.25295 36036 ft 485 kts 79°
2026-05-06 04:14 52.59658 -45.14341 36039 ft 485 kts 79°
2026-05-06 04:14 52.60757 -45.03386 36042 ft 485 kts 79°
2026-05-06 04:15 52.61851 -44.92426 36041 ft 485 kts 79°
2026-05-06 04:15 52.62930 -44.81465 36046 ft 485 kts 79°
2026-05-06 04:16 52.64003 -44.70491 36044 ft 485 kts 79°
2026-05-06 04:16 52.65057 -44.59591 36045 ft 485 kts 79°
2026-05-06 04:17 52.66107 -44.48606 36053 ft 485 kts 79°
2026-05-06 04:17 52.67145 -44.37616 36071 ft 485 kts 80°
2026-05-06 04:18 52.68170 -44.26648 36057 ft 483 kts 81°
2026-05-06 04:18 52.69188 -44.15699 36043 ft 483 kts 81°
2026-05-06 04:19 52.70198 -44.04746 36055 ft 483 kts 81°
2026-05-06 04:19 52.71190 -43.93780 36056 ft 484 kts 81°
2026-05-06 04:20 52.72171 -43.82805 36059 ft 484 kts 81°
2026-05-06 04:20 52.73143 -43.71845 36067 ft 481 kts 81°
2026-05-06 04:21 52.74103 -43.60935 36063 ft 480 kts 81°
2026-05-06 04:21 52.75052 -43.50034 36062 ft 480 kts 82°
2026-05-06 04:22 52.75989 -43.39122 36077 ft 480 kts 82°
2026-05-06 04:23 52.77377 -43.22751 36071 ft 480 kts 82°
2026-05-06 04:23 52.78287 -43.11848 36077 ft 479 kts 82°
2026-05-06 04:24 52.79182 -43.01010 36082 ft 479 kts 82°
2026-05-06 04:24 52.80073 -42.90093 36083 ft 479 kts 82°
2026-05-06 04:25 52.80956 -42.79175 36083 ft 479 kts 83°
2026-05-06 04:25 52.81830 -42.68250 36095 ft 479 kts 83°
2026-05-06 04:26 52.82698 -42.57327 36095 ft 479 kts 83°
2026-05-06 04:26 52.83550 -42.46399 36092 ft 479 kts 83°
2026-05-06 04:27 52.84386 -42.35463 36089 ft 479 kts 83°
2026-05-06 04:27 52.85208 -42.24534 36097 ft 479 kts 83°
2026-05-06 04:28 52.86023 -42.13609 36100 ft 479 kts 83°
2026-05-06 04:28 52.86837 -42.02673 36100 ft 479 kts 83°
2026-05-06 04:29 52.87637 -41.91764 36104 ft 476 kts 83°
2026-05-06 04:29 52.88420 -41.80891 36103 ft 475 kts 84°
2026-05-06 04:30 52.89192 -41.70022 36104 ft 475 kts 84°
2026-05-06 04:30 52.89958 -41.59142 36110 ft 476 kts 84°
2026-05-06 04:31 52.90722 -41.48262 36110 ft 476 kts 84°
2026-05-06 04:31 52.91469 -41.37377 36107 ft 475 kts 84°
2026-05-06 04:32 52.92203 -41.26523 36108 ft 474 kts 84°
2026-05-06 04:32 52.92923 -41.15666 36110 ft 474 kts 84°
2026-05-06 04:33 52.93638 -41.04817 36114 ft 474 kts 84°
2026-05-06 04:33 52.94342 -40.93959 36113 ft 474 kts 84°
2026-05-06 04:34 52.95029 -40.83170 36114 ft 474 kts 85°
2026-05-06 04:34 52.95712 -40.72308 36115 ft 473 kts 85°
2026-05-06 04:35 52.96383 -40.61460 36118 ft 473 kts 85°
2026-05-06 04:35 52.97045 -40.50609 36116 ft 473 kts 85°
2026-05-06 04:36 52.97698 -40.39749 36119 ft 473 kts 85°
2026-05-06 04:36 52.98338 -40.28883 36119 ft 473 kts 85°
2026-05-06 04:37 52.98971 -40.18011 36129 ft 473 kts 85°
2026-05-06 04:37 52.99593 -40.07161 36125 ft 472 kts 85°
2026-05-06 04:38 53.00507 -39.96386 36126 ft 472 kts 77°
2026-05-06 04:38 53.02036 -39.85776 36127 ft 473 kts 77°
2026-05-06 04:39 53.03560 -39.75155 36128 ft 472 kts 77°
2026-05-06 04:39 53.05070 -39.64526 36128 ft 473 kts 77°
2026-05-06 04:40 53.06567 -39.53912 36136 ft 471 kts 77°
2026-05-06 04:40 53.08052 -39.43300 36142 ft 471 kts 78°
2026-05-06 04:41 53.09530 -39.32682 36142 ft 471 kts 78°
2026-05-06 04:41 53.10996 -39.22052 36152 ft 471 kts 78°
2026-05-06 04:42 53.12458 -39.11417 36140 ft 471 kts 78°
2026-05-06 04:42 53.13909 -39.00774 36141 ft 471 kts 78°
2026-05-06 04:43 53.15350 -38.90125 36151 ft 471 kts 78°
2026-05-06 04:43 53.16779 -38.79467 36148 ft 471 kts 78°
2026-05-06 04:44 53.18199 -38.68796 36149 ft 471 kts 78°
2026-05-06 04:44 53.19609 -38.58127 36143 ft 471 kts 78°
2026-05-06 04:45 53.21012 -38.47456 36152 ft 471 kts 78°
2026-05-06 04:45 53.22414 -38.36780 36155 ft 471 kts 78°
2026-05-06 04:46 53.23790 -38.26172 36148 ft 471 kts 78°
2026-05-06 04:46 53.25165 -38.15482 36155 ft 471 kts 78°
2026-05-06 04:47 53.26530 -38.04774 36154 ft 472 kts 79°
2026-05-06 04:47 53.27881 -37.94078 36152 ft 470 kts 79°
2026-05-06 04:48 53.29218 -37.83390 36159 ft 470 kts 79°
2026-05-06 04:48 53.30538 -37.72697 36155 ft 470 kts 79°
2026-05-06 04:49 53.31859 -37.61997 36157 ft 470 kts 79°
2026-05-06 04:49 53.33175 -37.51294 36153 ft 470 kts 79°
2026-05-06 04:50 53.34482 -37.40618 36153 ft 467 kts 79°
2026-05-06 04:50 53.35772 -37.29950 36154 ft 467 kts 79°
2026-05-06 04:51 53.37047 -37.19286 36158 ft 467 kts 79°
2026-05-06 04:51 53.38313 -37.08609 36158 ft 467 kts 80°
2026-05-06 04:52 53.39571 -36.97932 36156 ft 467 kts 80°
2026-05-06 04:52 53.40816 -36.87260 36159 ft 466 kts 80°
2026-05-06 04:53 53.42050 -36.76596 36160 ft 466 kts 80°
2026-05-06 04:53 53.43278 -36.65936 36161 ft 466 kts 80°
2026-05-06 04:54 53.44493 -36.55261 36159 ft 466 kts 80°
2026-05-06 04:54 53.45698 -36.44587 36159 ft 466 kts 81°
2026-05-06 04:55 53.46692 -36.35715 36159 ft 464 kts 81°
2026-05-06 04:55 53.47876 -36.25074 36163 ft 464 kts 81°
2026-05-06 04:56 53.49048 -36.14431 36159 ft 464 kts 81°
2026-05-06 04:56 53.50213 -36.03778 36158 ft 464 kts 81°
2026-05-06 04:57 53.51367 -35.93126 36157 ft 464 kts 81°
2026-05-06 04:57 53.52501 -35.82460 36153 ft 463 kts 81°
2026-05-06 04:58 53.53625 -35.71818 36157 ft 462 kts 81°
2026-05-06 04:58 53.54746 -35.61170 36154 ft 463 kts 81°
2026-05-06 04:59 53.55870 -35.50510 36154 ft 463 kts 81°
2026-05-06 04:59 53.56991 -35.39844 36154 ft 463 kts 82°
2026-05-06 05:00 53.58084 -35.29168 36149 ft 463 kts 82°
2026-05-06 05:00 53.59169 -35.18505 36154 ft 462 kts 82°
2026-05-06 05:01 53.60238 -35.07846 36153 ft 462 kts 82°
2026-05-06 05:01 53.61307 -34.97180 36148 ft 462 kts 82°
2026-05-06 05:02 53.62363 -34.86510 36148 ft 462 kts 82°
2026-05-06 05:02 53.63408 -34.75837 36142 ft 462 kts 82°
2026-05-06 05:03 53.64443 -34.65184 36144 ft 460 kts 83°
2026-05-06 05:03 53.65460 -34.54605 36134 ft 460 kts 83°
2026-05-06 05:04 53.66470 -34.43947 36138 ft 460 kts 83°
2026-05-06 05:04 53.67473 -34.33289 36139 ft 460 kts 83°
2026-05-06 05:05 53.68471 -34.22623 36133 ft 460 kts 83°
2026-05-06 05:05 53.69456 -34.11961 36136 ft 460 kts 83°
2026-05-06 05:06 53.70431 -34.01291 36131 ft 460 kts 83°
2026-05-06 05:06 53.71397 -33.90622 36131 ft 460 kts 83°
2026-05-06 05:07 53.72354 -33.79947 36126 ft 460 kts 83°
2026-05-06 05:07 53.73300 -33.69275 36128 ft 460 kts 83°
2026-05-06 05:08 53.74236 -33.58593 36132 ft 460 kts 84°
2026-05-06 05:08 53.75165 -33.47907 36123 ft 460 kts 84°
2026-05-06 05:09 53.76084 -33.37216 36123 ft 460 kts 84°
2026-05-06 05:09 53.76991 -33.26518 36120 ft 460 kts 84°
2026-05-06 05:10 53.77887 -33.15822 36126 ft 460 kts 84°
2026-05-06 05:10 53.78776 -33.05119 36107 ft 459 kts 84°
2026-05-06 05:11 53.79656 -32.94419 36116 ft 459 kts 84°
2026-05-06 05:11 53.80527 -32.83713 36119 ft 459 kts 84°
2026-05-06 05:12 53.81384 -32.73074 36106 ft 459 kts 84°
2026-05-06 05:12 53.82235 -32.62360 36101 ft 459 kts 84°
2026-05-06 05:13 53.83076 -32.51642 36103 ft 459 kts 85°
2026-05-06 05:13 53.83907 -32.40928 36106 ft 459 kts 85°
2026-05-06 05:14 53.84727 -32.30216 36106 ft 459 kts 85°
2026-05-06 05:14 53.85538 -32.19495 36106 ft 459 kts 85°
2026-05-06 05:15 53.86339 -32.08773 36104 ft 459 kts 85°
2026-05-06 05:15 53.87129 -31.98047 36089 ft 459 kts 85°
2026-05-06 05:16 53.87904 -31.87321 36102 ft 458 kts 85°
2026-05-06 05:16 53.88677 -31.76601 36098 ft 459 kts 85°
2026-05-06 05:17 53.89449 -31.65864 36101 ft 459 kts 85°
2026-05-06 05:17 53.90204 -31.55111 36100 ft 459 kts 85°
2026-05-06 05:18 53.90950 -31.44356 36104 ft 459 kts 86°
2026-05-06 05:18 53.91683 -31.33636 36102 ft 455 kts 86°
2026-05-06 05:19 53.92403 -31.22973 36107 ft 455 kts 86°
2026-05-06 05:19 53.93111 -31.12309 36107 ft 455 kts 86°
2026-05-06 05:20 53.93810 -31.01642 36105 ft 455 kts 86°
2026-05-06 05:20 53.94500 -30.90968 36102 ft 455 kts 86°
2026-05-06 05:21 53.95181 -30.80307 36106 ft 452 kts 86°
2026-05-06 05:21 53.95847 -30.69736 36107 ft 450 kts 86°
2026-05-06 05:22 53.96496 -30.59243 36110 ft 450 kts 86°
2026-05-06 05:22 53.97142 -30.48675 36109 ft 450 kts 86°
2026-05-06 05:23 53.97777 -30.38078 36120 ft 452 kts 86°
2026-05-06 05:23 53.98722 -30.22170 36116 ft 449 kts 87°
2026-05-06 05:24 53.99335 -30.11636 36123 ft 448 kts 87°
2026-05-06 05:24 53.99957 -30.01103 36123 ft 449 kts 84°
2026-05-06 05:25 54.01316 -29.90717 36128 ft 451 kts 79°
2026-05-06 05:25 54.02818 -29.80359 36128 ft 451 kts 79°
2026-05-06 05:26 54.04295 -29.69996 36126 ft 450 kts 79°
2026-05-06 05:26 54.05761 -29.59634 36131 ft 450 kts 79°
2026-05-06 05:27 54.07215 -29.49270 36134 ft 450 kts 79°
2026-05-06 05:27 54.08661 -29.38900 36136 ft 450 kts 79°
2026-05-06 05:28 54.10097 -29.28526 36140 ft 450 kts 79°
2026-05-06 05:28 54.11522 -29.18142 36132 ft 450 kts 79°
2026-05-06 05:29 54.12941 -29.07765 36142 ft 449 kts 79°
2026-05-06 05:29 54.14350 -28.97381 36143 ft 449 kts 79°
2026-05-06 05:30 54.15749 -28.86993 36145 ft 449 kts 79°
2026-05-06 05:30 54.17140 -28.76596 36148 ft 449 kts 79°
2026-05-06 05:31 54.18518 -28.66192 36145 ft 449 kts 79°
2026-05-06 05:31 54.19890 -28.55797 36145 ft 449 kts 79°
2026-05-06 05:32 54.21241 -28.45461 36153 ft 449 kts 79°
2026-05-06 05:32 54.22590 -28.35045 36153 ft 449 kts 79°
2026-05-06 05:33 54.23929 -28.24621 36153 ft 449 kts 79°
2026-05-06 05:33 54.25266 -28.14188 36153 ft 449 kts 79°
2026-05-06 05:34 54.26593 -28.03751 36157 ft 449 kts 79°
2026-05-06 05:34 54.27909 -27.93314 36157 ft 449 kts 79°
2026-05-06 05:35 54.29217 -27.82865 36154 ft 449 kts 79°
2026-05-06 05:35 54.30510 -27.72410 36154 ft 449 kts 79°
2026-05-06 05:36 54.31804 -27.61942 36150 ft 449 kts 79°
2026-05-06 05:36 54.33091 -27.51472 36154 ft 450 kts 79°
2026-05-06 05:37 54.34371 -27.40980 36154 ft 450 kts 79°
2026-05-06 05:37 54.35633 -27.30484 36153 ft 450 kts 79°
2026-05-06 05:38 54.36890 -27.19982 36151 ft 450 kts 79°
2026-05-06 05:38 54.38136 -27.09474 36149 ft 450 kts 79°
2026-05-06 05:39 54.39368 -26.99001 36151 ft 451 kts 79°
2026-05-06 05:39 54.40605 -26.88366 36150 ft 452 kts 79°
2026-05-06 05:40 54.41822 -26.77860 36153 ft 452 kts 79°
2026-05-06 05:40 54.43038 -26.67285 36154 ft 452 kts 79°
2026-05-06 05:41 54.44240 -26.56695 36154 ft 452 kts 79°
2026-05-06 05:41 54.45438 -26.46076 36154 ft 453 kts 79°
2026-05-06 05:42 54.46634 -26.35432 36150 ft 454 kts 79°
2026-05-06 05:42 54.47817 -26.24775 36147 ft 454 kts 79°
2026-05-06 05:43 54.48794 -26.15912 36149 ft 454 kts 79°
2026-05-06 05:43 54.50153 -26.03438 36153 ft 454 kts 79°
2026-05-06 05:44 54.51114 -25.94552 36145 ft 455 kts 79°
2026-05-06 05:44 54.52266 -25.83840 36148 ft 455 kts 79°
2026-05-06 05:45 54.53409 -25.73124 36145 ft 455 kts 79°
2026-05-06 05:45 54.54541 -25.62398 36145 ft 455 kts 79°
2026-05-06 05:46 54.55659 -25.51663 36150 ft 455 kts 79°
2026-05-06 05:46 54.56775 -25.40930 36139 ft 455 kts 79°
2026-05-06 05:47 54.57883 -25.30197 36139 ft 455 kts 79°
2026-05-06 05:47 54.58975 -25.19454 36139 ft 455 kts 79°
2026-05-06 05:48 54.60058 -25.08706 36143 ft 455 kts 79°
2026-05-06 05:48 54.61135 -24.97949 36149 ft 455 kts 80°
2026-05-06 05:49 54.62199 -24.87174 36138 ft 456 kts 79°
2026-05-06 05:49 54.63258 -24.76383 36136 ft 456 kts 79°
2026-05-06 05:50 54.64308 -24.65578 36135 ft 456 kts 79°
2026-05-06 05:50 54.65347 -24.54767 36134 ft 456 kts 80°
2026-05-06 05:51 54.66376 -24.43947 36135 ft 456 kts 80°
2026-05-06 05:51 54.67397 -24.33112 36128 ft 457 kts 79°
2026-05-06 05:52 54.68412 -24.22258 36127 ft 458 kts 79°
2026-05-06 05:52 54.69415 -24.11389 36127 ft 458 kts 79°
2026-05-06 05:53 54.70409 -24.00521 36118 ft 458 kts 79°
2026-05-06 05:53 54.71390 -23.89658 36127 ft 457 kts 80°
2026-05-06 05:54 54.72368 -23.78780 36126 ft 458 kts 79°
2026-05-06 05:54 54.73333 -23.67881 36116 ft 458 kts 79°
2026-05-06 05:55 54.74291 -23.56973 36117 ft 459 kts 79°
2026-05-06 05:55 54.75236 -23.46056 36115 ft 459 kts 79°
2026-05-06 05:56 54.76172 -23.35137 36113 ft 459 kts 80°
2026-05-06 05:56 54.77095 -23.24266 36114 ft 460 kts 79°
2026-05-06 05:57 54.78015 -23.13307 36112 ft 460 kts 79°
2026-05-06 05:57 54.78926 -23.02336 36110 ft 460 kts 79°
2026-05-06 05:58 54.79824 -22.91364 36112 ft 460 kts 80°
2026-05-06 05:58 54.80715 -22.80382 36109 ft 460 kts 80°
2026-05-06 05:59 54.81597 -22.69399 36103 ft 460 kts 80°
2026-05-06 05:59 54.82468 -22.58407 36103 ft 460 kts 80°
2026-05-06 06:00 54.83330 -22.47410 36106 ft 460 kts 80°
2026-05-06 06:00 54.84179 -22.36406 36106 ft 460 kts 80°
2026-05-06 06:01 54.85022 -22.25391 36118 ft 460 kts 80°
2026-05-06 06:01 54.85854 -22.14359 36101 ft 461 kts 80°
2026-05-06 06:02 54.86679 -22.03314 36101 ft 461 kts 80°
2026-05-06 06:02 54.87492 -21.92263 36098 ft 462 kts 80°
2026-05-06 06:03 54.88296 -21.81201 36095 ft 462 kts 80°
2026-05-06 06:03 54.89091 -21.70137 36113 ft 462 kts 80°
2026-05-06 06:04 54.89875 -21.59057 36099 ft 462 kts 80°
2026-05-06 06:04 54.90642 -21.48063 36097 ft 461 kts 80°
2026-05-06 06:05 54.91406 -21.36988 36093 ft 461 kts 80°
2026-05-06 06:05 54.92157 -21.25918 36090 ft 461 kts 80°
2026-05-06 06:06 54.92901 -21.14834 36111 ft 461 kts 81°
2026-05-06 06:06 54.93637 -21.03733 36090 ft 463 kts 80°
2026-05-06 06:07 54.94360 -20.92614 36086 ft 463 kts 80°
2026-05-06 06:07 54.95075 -20.81494 36084 ft 463 kts 81°
2026-05-06 06:08 54.95780 -20.70366 36086 ft 463 kts 81°
2026-05-06 06:08 54.96475 -20.59235 36106 ft 463 kts 81°
2026-05-06 06:09 54.97163 -20.48083 36090 ft 464 kts 80°
2026-05-06 06:09 54.97839 -20.36917 36087 ft 464 kts 81°
2026-05-06 06:10 54.98504 -20.25746 36085 ft 464 kts 81°
2026-05-06 06:10 54.99158 -20.14573 36083 ft 464 kts 81°
2026-05-06 06:11 54.99804 -20.03394 36096 ft 464 kts 81°
2026-05-06 06:11 55.00158 -19.92130 36085 ft 466 kts 84°
2026-05-06 06:12 55.00365 -19.80835 36085 ft 467 kts 84°
2026-05-06 06:12 55.00570 -19.69546 36085 ft 466 kts 84°
2026-05-06 06:13 55.00771 -19.58247 36086 ft 467 kts 85°
2026-05-06 06:13 55.00957 -19.46947 36115 ft 467 kts 85°
2026-05-06 06:14 55.01137 -19.35645 36085 ft 466 kts 84°
2026-05-06 06:14 55.01302 -19.24334 36324 ft 467 kts 85°
2026-05-06 06:15 55.01380 -19.18761 36505 ft 466 kts 85°
2026-05-06 06:15 55.01459 -19.13116 36670 ft 466 kts 85°
2026-05-06 06:15 55.01534 -19.07474 36827 ft 466 kts 85°
2026-05-06 06:15 55.01604 -19.01823 36982 ft 466 kts 85°
2026-05-06 06:16 55.01671 -18.96181 37109 ft 467 kts 85°
2026-05-06 06:16 55.01741 -18.90529 37118 ft 466 kts 85°
2026-05-06 06:16 55.01868 -18.79227 37095 ft 466 kts 85°
2026-05-06 06:17 55.01980 -18.67926 37085 ft 467 kts 85°
2026-05-06 06:17 55.02086 -18.56616 37079 ft 467 kts 85°
2026-05-06 06:18 55.02179 -18.45306 37081 ft 467 kts 85°
2026-05-06 06:18 55.02262 -18.33994 37083 ft 467 kts 86°
2026-05-06 06:19 55.02337 -18.22665 37086 ft 468 kts 86°
2026-05-06 06:19 55.02399 -18.11323 37081 ft 468 kts 86°
2026-05-06 06:20 55.02450 -17.99977 37083 ft 468 kts 86°
2026-05-06 06:20 55.02491 -17.88628 37080 ft 468 kts 86°
2026-05-06 06:21 55.02524 -17.77279 37080 ft 468 kts 86°
2026-05-06 06:21 55.02547 -17.65923 37087 ft 469 kts 86°
2026-05-06 06:22 55.02554 -17.54569 37075 ft 467 kts 86°
2026-05-06 06:22 55.02549 -17.43260 37080 ft 467 kts 86°
2026-05-06 06:23 55.02538 -17.31952 37082 ft 467 kts 86°
2026-05-06 06:23 55.02516 -17.20643 37082 ft 467 kts 86°
2026-05-06 06:24 55.02482 -17.09332 37080 ft 467 kts 86°
2026-05-06 06:24 55.02442 -16.98021 37080 ft 467 kts 86°
2026-05-06 06:25 55.02388 -16.86707 37077 ft 467 kts 87°
2026-05-06 06:26 55.02282 -16.69735 37076 ft 467 kts 87°
2026-05-06 06:26 55.02200 -16.58422 37093 ft 468 kts 87°
2026-05-06 06:27 55.02110 -16.47073 37080 ft 469 kts 87°
2026-05-06 06:27 55.02008 -16.35722 37077 ft 468 kts 87°
2026-05-06 06:28 55.01903 -16.24447 37077 ft 469 kts 87°
2026-05-06 06:28 55.01784 -16.13091 37078 ft 469 kts 87°
2026-05-06 06:29 55.01652 -16.01735 37092 ft 469 kts 87°
2026-05-06 06:29 55.01509 -15.90370 37076 ft 469 kts 88°
2026-05-06 06:30 55.01355 -15.78995 37074 ft 470 kts 88°
2026-05-06 06:30 55.01187 -15.67620 37074 ft 470 kts 88°
2026-05-06 06:31 55.01043 -15.58166 37075 ft 470 kts 88°
2026-05-06 06:31 55.00860 -15.46789 37074 ft 470 kts 88°
2026-05-06 06:32 55.00669 -15.35407 37079 ft 471 kts 88°
2026-05-06 06:32 55.00459 -15.24007 37064 ft 471 kts 88°
2026-05-06 06:33 55.00238 -15.12604 37066 ft 471 kts 88°
2026-05-06 06:33 55.00015 -15.01197 37057 ft 471 kts 88°
2026-05-06 06:34 55.00023 -14.89810 37076 ft 470 kts 85°
2026-05-06 06:34 55.00063 -14.78423 37076 ft 470 kts 86°
2026-05-06 06:35 55.00087 -14.67026 37075 ft 471 kts 86°
2026-05-06 06:35 55.00092 -14.55625 37070 ft 471 kts 86°
2026-05-06 06:36 55.00089 -14.44224 37059 ft 471 kts 86°
2026-05-06 06:36 55.00081 -14.32818 37101 ft 471 kts 86°
2026-05-06 06:37 55.00055 -14.21401 37076 ft 472 kts 86°
2026-05-06 06:37 55.00021 -14.09971 37071 ft 472 kts 86°
2026-05-06 06:38 54.99543 -13.98547 37071 ft 478 kts 100°
2026-05-06 06:38 54.97375 -13.87638 37066 ft 480 kts 109°
2026-05-06 06:39 54.94951 -13.76849 37070 ft 479 kts 109°
2026-05-06 06:39 54.92565 -13.66043 37081 ft 479 kts 109°
2026-05-06 06:40 54.90181 -13.55237 37072 ft 479 kts 109°
2026-05-06 06:40 54.87787 -13.44443 37069 ft 479 kts 109°
2026-05-06 06:41 54.85385 -13.33661 37072 ft 479 kts 109°
2026-05-06 06:41 54.82975 -13.22886 37072 ft 479 kts 109°
2026-05-06 06:42 54.80553 -13.12130 37064 ft 479 kts 109°
2026-05-06 06:42 54.78123 -13.01420 37076 ft 477 kts 109°
2026-05-06 06:43 54.75688 -12.90727 37075 ft 477 kts 109°
2026-05-06 06:43 54.73249 -12.80044 37069 ft 477 kts 109°
2026-05-06 06:44 54.70792 -12.69381 37071 ft 477 kts 109°
2026-05-06 06:44 54.68328 -12.58729 37070 ft 477 kts 109°
2026-05-06 06:45 54.65859 -12.48084 37095 ft 477 kts 109°
2026-05-06 06:45 54.63386 -12.37438 37082 ft 478 kts 110°
2026-05-06 06:46 54.60918 -12.26909 37073 ft 475 kts 110°
2026-05-06 06:46 54.58428 -12.16341 37073 ft 476 kts 110°
2026-05-06 06:47 54.55929 -12.05793 37070 ft 475 kts 110°
2026-05-06 06:47 54.53421 -11.95251 37070 ft 476 kts 110°
2026-05-06 06:48 54.50903 -11.84725 37091 ft 476 kts 110°
2026-05-06 06:48 54.48376 -11.74205 37077 ft 476 kts 110°
2026-05-06 06:49 54.45839 -11.63700 37074 ft 476 kts 110°
2026-05-06 06:49 54.43297 -11.53216 37076 ft 474 kts 110°
2026-05-06 06:50 54.40750 -11.42775 37078 ft 474 kts 110°
2026-05-06 06:50 54.38194 -11.32343 37078 ft 474 kts 111°
2026-05-06 06:51 54.35629 -11.21926 37082 ft 474 kts 111°
2026-05-06 06:51 54.33056 -11.11517 37081 ft 474 kts 111°
2026-05-06 06:52 54.30475 -11.01128 37078 ft 474 kts 111°
2026-05-06 06:52 54.27900 -10.90815 37081 ft 474 kts 111°
2026-05-06 06:53 54.25296 -10.80446 37075 ft 473 kts 111°
2026-05-06 06:53 54.22697 -10.70128 37076 ft 472 kts 111°
2026-05-06 06:54 54.20091 -10.59822 37079 ft 473 kts 112°
2026-05-06 06:54 54.17473 -10.49528 37078 ft 473 kts 112°
2026-05-06 06:55 54.14844 -10.39243 37080 ft 473 kts 112°
2026-05-06 06:55 54.12207 -10.28975 37080 ft 473 kts 112°
2026-05-06 06:56 54.09562 -10.18716 37075 ft 473 kts 112°
2026-05-06 06:56 54.06909 -10.08468 37066 ft 472 kts 112°
2026-05-06 06:57 54.04254 -9.98273 37082 ft 471 kts 113°
2026-05-06 06:57 54.01595 -9.88097 37079 ft 471 kts 113°
2026-05-06 06:58 53.98924 -9.77927 37072 ft 471 kts 113°
2026-05-06 06:58 53.96247 -9.67770 37064 ft 471 kts 113°
2026-05-06 06:59 53.93579 -9.57699 37065 ft 471 kts 113°
2026-05-06 06:59 53.90884 -9.47576 37062 ft 471 kts 113°
2026-05-06 07:00 53.88178 -9.37460 37054 ft 471 kts 114°
2026-05-06 07:00 53.85461 -9.27358 37053 ft 471 kts 114°
2026-05-06 07:01 53.82737 -9.17271 37051 ft 471 kts 114°
2026-05-06 07:01 53.80014 -9.07194 37053 ft 471 kts 114°
2026-05-06 07:02 53.77277 -8.97131 37047 ft 471 kts 114°
2026-05-06 07:02 53.74533 -8.87083 37059 ft 471 kts 115°
2026-05-06 07:03 53.71777 -8.77041 37049 ft 471 kts 115°
2026-05-06 07:03 53.69013 -8.67014 37042 ft 471 kts 115°
2026-05-06 07:04 53.66243 -8.57004 37039 ft 470 kts 115°
2026-05-06 07:04 53.63469 -8.47029 37038 ft 470 kts 115°
2026-05-06 07:05 53.60703 -8.37126 37039 ft 470 kts 115°
2026-05-06 07:05 53.57911 -8.27170 37041 ft 470 kts 115°
2026-05-06 07:06 53.55115 -8.17245 37038 ft 469 kts 115°
2026-05-06 07:06 53.52314 -8.07336 37044 ft 469 kts 115°
2026-05-06 07:07 53.49499 -7.97435 37040 ft 469 kts 116°
2026-05-06 07:07 53.46664 -7.87491 37037 ft 469 kts 116°
2026-05-06 07:08 53.43860 -7.77708 37045 ft 468 kts 116°
2026-05-06 07:08 53.41028 -7.67886 37045 ft 467 kts 116°
2026-05-06 07:09 53.38201 -7.58093 37047 ft 467 kts 116°
2026-05-06 07:09 53.35367 -7.48315 37047 ft 467 kts 116°
2026-05-06 07:10 53.32523 -7.38554 37043 ft 467 kts 116°
2026-05-06 07:10 53.29671 -7.28798 37045 ft 467 kts 116°
2026-05-06 07:11 53.26812 -7.19062 37043 ft 467 kts 116°
2026-05-06 07:11 53.23944 -7.09331 37042 ft 467 kts 117°
2026-05-06 07:12 53.21068 -6.99617 37045 ft 467 kts 117°
2026-05-06 07:12 53.18181 -6.89910 37047 ft 467 kts 117°
2026-05-06 07:13 53.15290 -6.80225 37047 ft 467 kts 117°
2026-05-06 07:13 53.12388 -6.70547 37043 ft 467 kts 117°
2026-05-06 07:14 53.09480 -6.60883 37050 ft 467 kts 117°
2026-05-06 07:14 53.06562 -6.51218 37042 ft 467 kts 117°
2026-05-06 07:15 53.03636 -6.41570 37044 ft 467 kts 117°
2026-05-06 07:15 53.00721 -6.31999 37041 ft 467 kts 118°
2026-05-06 07:16 52.97759 -6.22311 37041 ft 467 kts 118°
2026-05-06 07:16 52.94829 -6.12769 37039 ft 467 kts 118°
2026-05-06 07:17 52.91873 -6.03181 37039 ft 467 kts 118°
2026-05-06 07:17 52.88914 -5.93627 37033 ft 466 kts 118°
2026-05-06 07:18 52.85950 -5.84086 37019 ft 466 kts 118°
2026-05-06 07:18 52.82982 -5.74569 37033 ft 466 kts 118°
2026-05-06 07:19 52.80004 -5.65065 37030 ft 466 kts 118°
2026-05-06 07:19 52.77021 -5.55575 37030 ft 466 kts 118°
2026-05-06 07:20 52.74035 -5.46092 37029 ft 466 kts 118°
2026-05-06 07:20 52.71081 -5.36583 37027 ft 466 kts 118°
2026-05-06 07:21 52.68621 -5.28695 37031 ft 466 kts 118°
2026-05-06 07:21 52.65647 -5.19216 37031 ft 465 kts 118°
2026-05-06 07:22 52.62668 -5.09760 37026 ft 465 kts 118°
2026-05-06 07:22 52.59683 -5.00324 37030 ft 465 kts 118°
2026-05-06 07:23 52.56695 -4.90907 37025 ft 464 kts 118°
2026-05-06 07:23 52.53701 -4.81511 37027 ft 464 kts 119°
2026-05-06 07:24 52.50699 -4.72128 37024 ft 464 kts 119°
2026-05-06 07:24 52.47692 -4.62760 37020 ft 464 kts 119°
2026-05-06 07:25 52.44675 -4.53394 37020 ft 464 kts 119°
2026-05-06 07:25 52.41655 -4.44058 37018 ft 463 kts 119°
2026-05-06 07:26 52.38654 -4.34818 37020 ft 463 kts 119°
2026-05-06 07:26 52.35625 -4.25525 37023 ft 463 kts 119°
2026-05-06 07:27 52.32589 -4.16247 37023 ft 463 kts 119°
2026-05-06 07:27 52.29542 -4.06973 37024 ft 463 kts 119°
2026-05-06 07:28 52.26491 -3.97722 37026 ft 463 kts 120°
2026-05-06 07:28 52.21901 -3.83861 37017 ft 463 kts 120°
2026-05-06 07:29 52.18832 -3.74640 37023 ft 463 kts 120°
2026-05-06 07:29 52.15758 -3.65436 37023 ft 463 kts 120°
2026-05-06 07:30 52.12675 -3.56241 37032 ft 463 kts 120°
2026-05-06 07:30 52.09584 -3.47061 37030 ft 463 kts 120°
2026-05-06 07:31 52.06487 -3.37896 37035 ft 462 kts 120°
2026-05-06 07:31 52.03391 -3.28764 37032 ft 461 kts 120°
2026-05-06 07:32 52.00290 -3.19646 37033 ft 461 kts 120°
2026-05-06 07:32 51.97205 -3.10614 37032 ft 460 kts 120°
2026-05-06 07:33 51.94095 -3.01539 37027 ft 460 kts 120°
2026-05-06 07:33 51.90979 -2.92481 37034 ft 460 kts 120°
2026-05-06 07:34 51.87862 -2.83448 37025 ft 459 kts 120°
2026-05-06 07:34 51.84741 -2.74441 37034 ft 459 kts 120°
2026-05-06 07:35 51.81613 -2.65448 37030 ft 459 kts 120°
2026-05-06 07:35 51.78479 -2.56464 37036 ft 459 kts 120°
2026-05-06 07:36 51.75340 -2.47499 37029 ft 459 kts 120°
2026-05-06 07:36 51.72185 -2.38526 37036 ft 459 kts 120°
2026-05-06 07:37 51.69036 -2.29600 37026 ft 457 kts 120°
2026-05-06 07:37 51.65885 -2.20696 37025 ft 458 kts 121°
2026-05-06 07:38 51.62720 -2.11787 37034 ft 458 kts 121°
2026-05-06 07:38 51.59556 -2.02909 37028 ft 458 kts 121°
2026-05-06 07:39 51.56380 -1.94030 36954 ft 457 kts 121°
2026-05-06 07:39 51.54794 -1.89611 36733 ft 456 kts 121°
2026-05-06 07:39 51.53211 -1.85201 36496 ft 454 kts 121°
2026-05-06 07:40 51.51630 -1.80809 36236 ft 454 kts 121°
2026-05-06 07:40 51.50048 -1.76422 35982 ft 454 kts 121°
2026-05-06 07:40 51.48465 -1.72038 35715 ft 454 kts 121°
2026-05-06 07:40 51.46908 -1.67637 35443 ft 453 kts 118°
2026-05-06 07:41 51.45537 -1.63107 35172 ft 450 kts 115°
2026-05-06 07:41 51.44211 -1.58579 34899 ft 448 kts 115°
2026-05-06 07:41 51.42891 -1.54055 34630 ft 448 kts 115°
2026-05-06 07:41 51.41567 -1.49537 34356 ft 448 kts 115°
2026-05-06 07:42 51.40243 -1.45033 34095 ft 446 kts 115°
2026-05-06 07:42 51.38935 -1.40601 33814 ft 446 kts 115°
2026-05-06 07:42 51.37589 -1.36047 33511 ft 446 kts 115°
2026-05-06 07:42 51.36278 -1.31616 33216 ft 447 kts 115°
2026-05-06 07:43 51.34945 -1.27128 32913 ft 446 kts 115°
2026-05-06 07:43 51.33543 -1.22708 32617 ft 445 kts 120°
2026-05-06 07:43 51.31895 -1.18517 32313 ft 444 kts 123°
2026-05-06 07:43 51.30095 -1.14491 32045 ft 446 kts 127°
2026-05-06 07:44 51.28233 -1.10549 31769 ft 445 kts 127°
2026-05-06 07:44 51.26369 -1.06612 31509 ft 444 kts 127°
2026-05-06 07:44 51.24504 -1.02671 31256 ft 445 kts 127°
2026-05-06 07:44 51.22647 -0.98746 31002 ft 442 kts 127°
2026-05-06 07:45 51.20800 -0.94844 30742 ft 443 kts 127°
2026-05-06 07:45 51.18944 -0.90929 30496 ft 442 kts 128°
2026-05-06 07:45 51.17089 -0.87022 30248 ft 442 kts 129°
2026-05-06 07:45 51.15232 -0.83118 30003 ft 441 kts 129°
2026-05-06 07:46 51.13382 -0.79235 29707 ft 440 kts 129°
2026-05-06 07:46 51.11529 -0.75352 29418 ft 440 kts 129°
2026-05-06 07:46 51.09680 -0.71483 29131 ft 439 kts 129°
2026-05-06 07:46 51.07831 -0.67618 28965 ft 439 kts 129°
2026-05-06 07:47 51.04334 -0.59828 28974 ft 442 kts 123°
2026-05-06 07:47 51.02749 -0.55753 28964 ft 429 kts 123°
2026-05-06 07:47 51.01188 -0.51713 28968 ft 429 kts 123°
2026-05-06 07:48 50.98052 -0.43637 28973 ft 432 kts 123°
2026-05-06 07:48 50.94878 -0.35504 28967 ft 435 kts 123°
2026-05-06 07:49 50.91680 -0.27342 28964 ft 436 kts 123°
2026-05-06 07:49 50.88480 -0.19195 28964 ft 436 kts 123°
2026-05-06 07:50 50.85265 -0.11039 28962 ft 437 kts 123°
2026-05-06 07:50 50.82048 -0.02900 28967 ft 436 kts 123°
2026-05-06 07:51 50.78826 0.05227 28974 ft 440 kts 123°
2026-05-06 07:51 50.75248 0.13128 28973 ft 443 kts 136°
2026-05-06 07:52 50.70561 0.19397 28973 ft 442 kts 143°
2026-05-06 07:52 50.65751 0.25420 28966 ft 440 kts 143°
2026-05-06 07:53 50.61078 0.31362 28965 ft 435 kts 142°
2026-05-06 07:53 50.56334 0.37395 28962 ft 441 kts 142°
2026-05-06 07:54 50.51527 0.43498 28963 ft 445 kts 142°
2026-05-06 07:54 50.46705 0.49603 28961 ft 445 kts 142°
2026-05-06 07:55 50.41886 0.55690 28949 ft 444 kts 141°
2026-05-06 07:55 50.37075 0.61744 28952 ft 443 kts 141°
2026-05-06 07:56 50.32250 0.67801 28953 ft 445 kts 141°
2026-05-06 07:56 50.27429 0.73840 28944 ft 443 kts 141°
2026-05-06 07:57 50.22629 0.79838 28676 ft 436 kts 141°
2026-05-06 07:57 50.20274 0.82773 28047 ft 431 kts 141°
2026-05-06 07:57 50.17936 0.85683 27378 ft 428 kts 141°
2026-05-06 07:58 50.15616 0.88565 26699 ft 425 kts 141°
2026-05-06 07:58 50.13307 0.91433 26035 ft 423 kts 141°
2026-05-06 07:58 50.11013 0.94279 25413 ft 420 kts 141°
2026-05-06 07:58 50.08742 0.97094 24788 ft 414 kts 141°
2026-05-06 07:59 50.06493 0.99836 24170 ft 408 kts 143°
2026-05-06 07:59 50.04092 1.02094 23662 ft 398 kts 153°
2026-05-06 07:59 50.01619 1.03985 23330 ft 395 kts 154°
2026-05-06 07:59 49.99138 1.05826 23031 ft 394 kts 154°
2026-05-06 08:00 49.96665 1.07664 22908 ft 394 kts 154°
2026-05-06 08:00 49.94198 1.09507 22900 ft 394 kts 154°
2026-05-06 08:00 49.91733 1.11355 22915 ft 393 kts 154°
2026-05-06 08:00 49.89263 1.13208 22924 ft 396 kts 154°
2026-05-06 08:01 49.86782 1.15067 22926 ft 396 kts 154°
2026-05-06 08:01 49.84304 1.16922 22852 ft 394 kts 154°
2026-05-06 08:01 49.81852 1.18756 22333 ft 389 kts 154°
2026-05-06 08:01 49.79450 1.20548 21709 ft 389 kts 154°
2026-05-06 08:02 49.77013 1.22367 21062 ft 389 kts 154°
2026-05-06 08:02 49.74581 1.24179 20468 ft 387 kts 154°
2026-05-06 08:02 49.72159 1.25981 19890 ft 385 kts 154°
2026-05-06 08:02 49.69750 1.27773 19345 ft 383 kts 154°
2026-05-06 08:03 49.67352 1.29553 18840 ft 382 kts 154°
2026-05-06 08:03 49.64960 1.31329 18350 ft 381 kts 154°
2026-05-06 08:03 49.62571 1.33100 17810 ft 381 kts 154°
2026-05-06 08:03 49.60177 1.34871 17290 ft 381 kts 154°
2026-05-06 08:04 49.57787 1.36638 16768 ft 381 kts 154°
2026-05-06 08:04 49.55412 1.38393 16250 ft 375 kts 154°
2026-05-06 08:04 49.53083 1.40112 15754 ft 367 kts 154°
2026-05-06 08:04 49.50819 1.41781 15277 ft 355 kts 154°
2026-05-06 08:05 49.48621 1.43400 14739 ft 346 kts 154°
2026-05-06 08:05 49.46492 1.44965 14394 ft 332 kts 154°
2026-05-06 08:05 49.44443 1.46472 13994 ft 321 kts 154°
2026-05-06 08:05 49.42452 1.47933 13549 ft 312 kts 154°
2026-05-06 08:06 49.40511 1.49357 13083 ft 308 kts 154°
2026-05-06 08:06 49.38575 1.50775 12634 ft 307 kts 154°
2026-05-06 08:06 49.36651 1.52183 12194 ft 306 kts 153°
2026-05-06 08:06 49.34739 1.53583 11753 ft 303 kts 153°
2026-05-06 08:07 49.32848 1.54967 11325 ft 300 kts 153°
2026-05-06 08:07 49.31111 1.56685 10888 ft 296 kts 134°
2026-05-06 08:07 49.29987 1.59252 10462 ft 289 kts 108°
2026-05-06 08:07 49.29602 1.62234 10076 ft 284 kts 91°
2026-05-06 08:08 49.29511 1.65241 9871 ft 282 kts 90°
2026-05-06 08:08 49.29429 1.68235 9679 ft 281 kts 90°
2026-05-06 08:08 49.29325 1.71222 9434 ft 281 kts 92°
2026-05-06 08:08 49.28835 1.74113 9155 ft 285 kts 115°
2026-05-06 08:09 49.27669 1.76569 8893 ft 287 kts 129°
2026-05-06 08:09 49.26307 1.78805 8639 ft 288 kts 131°
2026-05-06 08:09 49.24920 1.81010 8381 ft 287 kts 131°
2026-05-06 08:09 49.24006 1.82467 8210 ft 286 kts 131°
2026-05-06 08:10 49.22634 1.84663 7945 ft 285 kts 131°
2026-05-06 08:10 49.21275 1.86838 7473 ft 281 kts 131°
2026-05-06 08:10 49.19920 1.88992 6917 ft 281 kts 131°
2026-05-06 08:10 49.18563 1.91139 6361 ft 280 kts 131°
2026-05-06 08:11 49.17203 1.93271 5785 ft 280 kts 131°
2026-05-06 08:11 49.15853 1.95367 5414 ft 271 kts 131°
2026-05-06 08:11 49.14484 1.97267 5147 ft 260 kts 137°
2026-05-06 08:11 49.13123 1.98991 4944 ft 248 kts 137°
2026-05-06 08:12 49.11814 2.00628 4681 ft 240 kts 137°
2026-05-06 08:12 49.10523 2.02227 4365 ft 238 kts 137°
2026-05-06 08:12 49.09233 2.03800 4093 ft 237 kts 137°
2026-05-06 08:12 49.07941 2.05355 4009 ft 237 kts 137°
2026-05-06 08:13 49.06647 2.06904 4014 ft 236 kts 137°
2026-05-06 08:13 49.05356 2.08458 4024 ft 236 kts 138°
2026-05-06 08:13 49.04073 2.10023 4031 ft 236 kts 137°
2026-05-06 08:13 49.02794 2.11591 4035 ft 236 kts 137°
2026-05-06 08:14 49.01561 2.13240 4026 ft 233 kts 124°
2026-05-06 08:14 49.00854 2.15401 4029 ft 226 kts 101°
2026-05-06 08:14 49.00631 2.17739 4034 ft 219 kts 88°
2026-05-06 08:14 49.00675 2.19906 4024 ft 196 kts 77°
2026-05-06 08:15 49.00817 2.21918 4005 ft 186 kts 81°
2026-05-06 08:15 49.00928 2.23875 3983 ft 186 kts 81°
2026-05-06 08:15 49.01032 2.25803 3890 ft 185 kts 81°
2026-05-06 08:15 49.01137 2.27749 3716 ft 184 kts 80°
2026-05-06 08:16 49.01241 2.29676 3478 ft 181 kts 80°
2026-05-06 08:16 49.01342 2.31557 3205 ft 174 kts 80°
2026-05-06 08:16 49.01439 2.33361 2944 ft 169 kts 79°
2026-05-06 08:16 49.01535 2.35130 2701 ft 167 kts 79°
2026-05-06 08:17 49.01629 2.36880 2478 ft 164 kts 79°
2026-05-06 08:17 49.01721 2.38602 2280 ft 160 kts 80°
2026-05-06 08:17 49.01807 2.40215 2075 ft 144 kts 79°
2026-05-06 08:17 49.01883 2.41616 1855 ft 128 kts 77°
2026-05-06 08:18 49.01956 2.42961 1666 ft 128 kts 77°
2026-05-06 08:18 49.02029 2.44322 1492 ft 129 kts 78°
2026-05-06 08:18 49.02103 2.45692 1315 ft 131 kts 78°
2026-05-06 08:18 49.02177 2.47065 1112 ft 130 kts 79°
2026-05-06 08:19 49.02252 2.48427 929 ft 129 kts 79°
2026-05-06 08:19 49.02333 2.49794 749 ft 129 kts 82°
2026-05-06 08:19 49.02397 2.51159 596 ft 128 kts 79°
2026-05-06 08:19 49.02470 2.52510 400 ft 128 kts 79°
2026-05-06 08:20 49.02542 2.53770 366 ft 97 kts 84°
2026-05-06 08:20 49.02576 2.54355 358 ft 27 kts 87°
2026-05-06 08:20 49.02548 2.54557 360 ft 20 kts 107°
2026-05-06 08:20 49.02508 2.54770 363 ft 22 kts 105°
2026-05-06 08:21 49.02469 2.54985 362 ft 21 kts 105°
2026-05-06 08:21 49.02448 2.55215 360 ft 23 kts 83°
2026-05-06 08:21 49.02459 2.55433 360 ft 15 kts 86°
2026-05-06 08:21 49.02440 2.55579 362 ft 15 kts 135°
2026-05-06 08:22 49.02363 2.55620 360 ft 13 kts 176°
2026-05-06 08:22 49.02269 2.55630 361 ft 14 kts 176°
2026-05-06 08:22 49.02167 2.55643 365 ft 13 kts 175°
2026-05-06 08:22 49.02078 2.55618 363 ft 15 kts 233°
2026-05-06 08:23 49.02062 2.55457 366 ft 12 kts 266°
2026-05-06 08:23 49.02054 2.55315 360 ft 15 kts 265°
2026-05-06 08:23 49.02045 2.55164 366 ft 11 kts 265°
2026-05-06 08:23 49.02003 2.55070 363 ft 13 kts 187°
2026-05-06 08:24 49.01906 2.55102 362 ft 15 kts 167°
2026-05-06 08:24 49.01793 2.55132 360 ft 18 kts 172°
2026-05-06 08:24 49.01665 2.55149 360 ft 19 kts 175°
2026-05-06 08:24 49.01527 2.55166 362 ft 16 kts 176°
2026-05-06 08:25 49.01411 2.55193 360 ft 16 kts 165°
2026-05-06 08:25 49.01326 2.55222 366 ft 11 kts 185°
2026-05-06 08:25 49.01262 2.55215 360 ft 9 kts 153°
2026-05-06 08:25 49.01251 2.55311 362 ft 8 kts 83°
2026-05-06 08:26 49.01256 2.55400 364 ft 9 kts 85°
2026-05-06 08:26 49.01292 2.55472 362 ft 10 kts
2026-05-06 08:26 49.01336 2.55469 360 ft 1 kts 354°
2026-05-06 08:26 49.01344 2.55467 360 ft 0 kts 354°